Theta_e
320 320 321 322 322 323 323 323 323 324 325 325 325 325 323 322 322 323 323 322 325 327 326 326 326 325 325 324 325 320 309 295 295 296 297 296 309 320 323 325 324 324 319 300 299 298 296 293 297 296 289 291 291 292 292 292 289 285 282 277 279 276 280 281 282 282 285 285 286 286 285 285 285 285 285 284 283 281 281 281 281 283 282 282 282 283 284 285
320 321 321 321 322 322 322 323 323 324 324 325 325 325 324 323 323 322 323 324 326 326 325 325 324 324 324 324 324 317 298 295 295 296 294 306 320 324 324 323 323 322 313 298 297 295 295 295 296 288 289 291 289 292 291 293 289 283 279 279 279 277 281 284 283 283 285 285 284 283 284 287 286 284 284 284 280 280 279 279 279 280 281 283 283 283 284 284
319 320 321 321 321 321 322 322 323 324 324 324 325 325 323 323 323 324 323 323 325 325 324 325 323 323 324 324 322 315 302 291 295 293 297 317 321 322 323 323 322 319 303 300 297 296 298 295 297 291 287 290 287 288 288 290 292 284 284 281 277 281 282 283 283 286 285 284 284 284 285 284 285 283 285 285 279 280 279 278 278 278 279 280 281 282 282 283
319 320 320 320 321 321 322 322 323 323 324 325 324 325 325 323 325 324 323 323 325 326 324 324 324 324 322 322 322 298 294 290 289 292 297 316 319 323 322 322 319 308 301 298 298 298 294 291 289 291 288 285 286 286 289 289 289 286 283 281 283 281 286 287 282 284 283 285 284 283 283 284 284 284 285 282 281 279 279 280 280 280 280 280 281 281 282 282
318 319 320 320 320 321 321 322 322 324 324 324 324 324 325 324 325 324 324 325 325 324 325 324 325 324 322 318 315 296 291 285 289 294 299 317 319 321 318 320 315 297 300 299 294 292 293 291 289 288 288 288 285 285 287 287 287 286 287 284 283 282 285 284 283 282 282 282 282 282 285 284 285 286 283 283 283 280 281 283 281 282 281 281 281 281 281 281
318 319 320 319 320 320 321 322 323 323 323 324 324 324 324 324 325 324 324 324 325 325 325 325 324 323 323 313 296 295 292 279 293 295 314 316 318 317 318 316 311 295 293 291 290 290 293 291 290 288 285 285 285 286 287 286 288 287 283 283 281 282 285 283 283 283 283 284 284 282 284 285 284 283 282 282 283 283 283 283 282 282 282 282 282 281 281 281
318 319 319 319 319 319 320 321 322 323 324 324 324 325 325 324 324 325 325 325 326 325 324 323 323 323 322 313 297 295 292 290 291 296 310 315 314 309 315 308 305 296 296 295 292 292 289 290 288 286 285 286 285 285 288 287 286 287 286 282 284 280 284 283 283 282 282 284 284 282 285 284 282 285 282 282 282 281 281 283 283 283 283 282 281 281 281 281
318 319 319 318 319 319 320 321 322 323 323 323 324 325 325 324 324 324 325 326 325 324 323 323 321 321 319 296 294 289 287 289 295 296 306 312 300 298 304 298 296 293 294 291 292 290 288 290 289 287 285 287 287 289 288 288 285 285 284 284 283 282 282 281 280 281 281 282 282 283 284 283 281 283 281 282 280 281 281 282 282 282 281 281 281 281 281 280
319 319 318 317 318 319 320 321 322 322 323 324 324 324 325 324 323 323 324 324 324 324 322 323 319 317 313 292 287 288 286 292 295 296 295 294 294 294 298 299 295 293 290 288 290 291 294 289 289 288 289 286 290 290 287 287 284 284 286 283 281 283 281 281 281 280 280 282 283 286 282 281 281 282 281 280 280 281 282 281 281 281 281 280 280 280 280 280
319 319 318 318 318 319 320 321 322 322 322 323 324 324 325 324 322 322 322 324 324 322 322 320 319 314 296 289 288 287 291 294 294 296 293 292 293 295 297 294 293 292 291 290 292 292 291 289 292 290 289 287 287 286 285 287 285 287 285 283 281 281 281 281 281 280 280 283 282 285 282 282 280 282 278 280 280 281 281 280 279 280 280 280 280 280 279 279
319 318 318 318 319 319 320 321 321 322 322 324 324 325 325 323 321 322 323 323 324 324 322 319 314 306 295 290 289 286 295 296 295 294 294 292 293 295 294 294 293 293 290 290 290 289 292 291 289 290 292 289 287 285 285 287 288 284 283 282 282 280 280 282 282 282 281 284 281 284 282 280 280 282 279 280 281 281 279 278 279 279 279 279 279 278 278 278
319 318 317 317 319 320 320 321 320 321 321 323 323 322 322 321 321 321 322 321 321 323 322 318 309 293 291 292 290 289 295 295 293 292 294 295 293 293 296 293 292 294 291 290 289 289 290 292 292 291 288 291 284 285 285 285 286 285 283 283 281 279 279 279 282 282 280 284 283 281 280 279 279 280 278 280 280 280 279 278 278 278 278 277 277 277 277 277
317 316 317 318 319 320 320 320 320 321 322 323 323 321 321 321 320 320 322 320 320 320 319 313 304 296 292 289 290 295 293 293 294 294 297 297 293 293 292 290 292 292 292 290 290 290 291 290 291 291 287 287 287 284 286 283 280 284 280 279 277 278 278 280 281 282 281 284 280 282 276 275 277 278 279 281 279 278 278 277 278 277 277 276 276 276 276 277
317 317 317 319 319 320 320 320 320 322 322 322 323 321 320 320 321 320 322 319 320 320 318 313 296 292 288 285 293 295 295 295 293 298 294 296 296 294 294 294 291 290 290 292 290 290 291 290 291 289 288 286 286 288 284 280 280 281 279 277 273 274 274 278 281 281 282 283 280 282 274 277 276 278 279 280 279 279 277 277 277 276 275 275 275 276 276 276
317 317 318 319 319 319 320 321 321 321 321 321 320 319 319 318 320 320 320 316 320 319 320 313 298 297 288 291 293 293 310 295 297 293 292 295 293 293 295 293 291 289 289 291 291 291 290 289 290 286 284 285 282 283 277 276 275 276 276 272 273 272 274 279 282 279 279 280 279 281 272 274 275 277 278 280 279 278 276 276 276 275 275 274 274 275 275 275
317 318 319 319 319 319 319 319 319 320 320 320 317 317 318 319 318 318 317 315 315 318 302 298 294 292 288 286 292 301 290 294 294 293 291 294 291 292 292 290 290 289 288 289 290 290 290 292 287 285 284 283 280 274 274 274 273 274 274 269 271 272 274 278 281 279 278 279 278 279 276 277 276 276 277 279 278 277 276 276 275 275 274 274 274 275 274 275
317 317 318 319 319 318 319 319 318 319 320 320 315 314 315 317 318 318 316 310 302 302 299 296 291 293 288 291 294 291 288 291 291 293 294 293 292 291 290 290 290 288 286 289 290 290 288 286 282 282 281 281 279 276 271 269 271 271 273 272 272 273 275 275 279 280 278 279 278 277 276 275 276 276 276 277 277 276 276 275 275 275 274 274 274 274 274 274
318 318 319 319 319 318 318 318 318 319 320 320 317 315 306 312 313 309 305 302 298 296 295 295 292 291 287 290 288 290 290 287 293 291 291 293 291 293 290 288 287 284 285 286 286 287 284 282 281 279 279 280 281 278 273 268 271 272 272 272 274 273 274 276 275 278 278 279 278 276 275 275 275 275 275 276 277 277 275 275 275 274 274 274 274 274 273 274
318 318 319 319 319 319 318 318 318 319 319 319 320 319 313 310 299 298 297 296 294 290 286 289 289 283 282 288 287 288 290 292 290 291 292 295 293 290 289 286 285 285 282 280 283 283 282 280 280 277 276 276 277 277 273 276 275 275 274 273 273 273 274 275 277 279 278 276 277 275 274 273 273 274 275 275 276 276 275 275 275 275 275 274 274 274 274 274
318 318 319 319 318 318 317 318 317 317 317 309 301 304 296 290 291 288 293 294 289 290 289 290 287 288 287 288 290 293 293 290 289 292 294 293 293 290 289 286 286 286 281 280 280 280 280 276 272 272 275 277 277 277 277 278 277 276 275 273 274 274 275 277 277 279 278 277 274 274 273 272 273 273 274 275 275 274 274 274 273 273 274 274 274 274 273 274
316 317 317 317 317 317 317 318 317 315 314 298 298 298 297 286 284 284 286 288 286 286 288 289 289 289 289 289 288 291 286 288 287 290 292 296 290 288 287 284 283 284 279 278 279 281 280 277 274 277 277 277 277 277 277 277 276 276 274 272 273 273 273 277 277 278 278 276 273 275 272 272 272 273 273 274 273 272 272 272 272 273 273 274 274 274 274 274
315 316 316 317 317 317 318 316 316 316 310 301 298 295 293 289 293 291 288 285 291 289 288 287 287 289 288 288 289 288 286 285 288 291 293 295 292 287 285 284 280 281 279 277 275 276 276 275 278 278 277 277 276 276 276 276 276 275 273 273 270 274 275 278 277 278 279 277 275 273 272 272 272 272 273 272 272 273 273 273 273 273 273 273 274 274 274 274
315 315 316 317 317 318 318 317 313 313 296 297 295 293 296 300 297 293 290 287 285 289 288 286 289 285 288 289 290 289 286 285 282 288 290 291 288 288 283 282 280 279 280 279 278 274 275 275 279 278 276 278 278 276 276 276 277 274 274 273 272 274 272 273 276 277 277 276 273 273 271 271 272 272 272 273 273 273 274 274 273 274 273 274 274 273 273 273
314 315 315 316 318 318 318 315 313 301 296 295 295 296 297 296 295 295 288 282 285 287 291 289 288 287 287 289 291 288 286 285 283 286 291 287 285 285 282 282 279 279 280 277 277 277 276 279 278 275 275 277 278 275 276 275 275 275 275 272 272 274 275 273 275 277 277 275 275 273 272 271 271 270 271 273 274 273 274 273 273 274 275 275 275 274 274 273
314 314 315 316 318 318 315 312 302 296 296 294 295 297 296 294 292 291 288 284 281 286 290 289 286 289 291 293 290 290 287 285 286 286 288 287 286 283 283 283 280 278 280 279 278 277 279 279 278 277 275 275 276 276 276 275 274 275 275 275 275 275 274 275 275 274 274 271 275 274 265 265 271 270 270 272 272 272 273 272 273 273 273 274 273 273 274 275
314 314 315 316 316 316 316 302 298 297 295 294 296 298 294 293 296 290 283 276 274 283 288 286 293 288 292 289 288 284 286 283 287 289 290 289 289 287 282 280 282 280 279 280 280 278 279 279 277 279 276 275 275 276 276 276 273 270 276 274 275 275 274 274 274 273 267 265 271 275 267 262 270 269 271 271 271 270 272 272 272 272 272 272 272 273 272 273
314 314 314 316 314 314 300 295 294 296 294 295 298 295 293 296 294 299 293 272 267 283 283 289 290 288 294 288 285 286 278 280 288 286 287 289 287 288 283 279 279 281 280 279 276 277 279 278 276 275 275 275 275 275 276 276 272 273 274 274 275 275 275 275 274 272 270 274 276 274 273 264 264 270 272 271 271 270 271 271 271 272 271 271 272 273 273 273
314 313 313 316 313 307 297 300 297 295 293 300 294 293 294 293 294 292 278 266 270 287 283 285 290 291 291 288 288 284 284 284 282 286 288 288 286 284 281 280 280 280 280 276 270 277 277 278 277 277 275 275 276 278 278 277 275 276 277 276 275 275 275 275 273 271 271 269 267 271 271 266 263 269 272 272 269 270 270 270 271 271 271 271 272 273 274 274
314 312 313 314 313 310 301 297 292 294 295 293 293 294 292 291 291 285 273 269 280 282 294 287 296 289 284 286 284 281 283 283 282 284 287 285 289 284 279 280 280 279 278 279 275 274 279 279 279 279 276 276 277 277 277 277 274 276 276 277 276 275 274 274 271 269 266 265 259 268 271 265 266 270 269 270 269 269 270 270 271 271 271 272 273 273 274 274
315 314 316 314 305 300 296 292 296 297 293 292 294 292 291 292 287 279 272 268 285 277 286 286 286 283 280 281 279 282 283 282 281 283 283 281 286 285 281 283 279 277 279 277 278 277 278 282 283 281 279 279 278 279 278 277 277 277 277 276 276 275 272 270 268 264 264 254 262 268 269 267 262 268 270 268 269 268 269 270 271 272 273 273 273 273 274 274
314 310 310 310 298 298 291 290 295 293 293 295 295 292 291 284 271 262 264 273 285 283 283 283 281 281 279 280 278 281 281 278 281 280 280 282 283 283 281 278 280 274 273 275 271 276 277 280 281 280 282 280 279 277 277 276 276 276 274 271 274 274 271 266 267 262 257 264 267 268 268 267 262 267 270 268 268 269 268 267 270 271 272 273 273 274 274 274
313 310 309 301 298 295 294 293 296 294 292 291 292 288 286 281 277 272 273 284 279 279 278 278 280 279 279 279 278 280 278 278 279 279 277 277 276 276 277 274 272 267 268 273 273 276 274 278 277 277 284 278 276 275 275 277 275 276 274 274 270 266 263 262 266 261 260 260 269 268 269 267 265 271 270 268 269 268 269 271 272 271 272 272 273 273 274 274
311 311 308 302 298 292 293 294 292 293 291 291 288 283 277 270 270 268 270 274 278 280 279 281 280 278 277 278 277 278 279 278 280 279 279 278 275 275 277 277 276 273 270 269 270 272 272 274 276 276 278 280 277 274 274 273 275 275 272 267 264 255 255 260 262 264 266 270 271 270 268 266 270 271 268 269 269 271 271 272 272 272 272 273 273 273 274 274
310 306 297 298 298 295 295 293 291 294 292 290 284 285 276 273 269 284 273 273 279 278 280 278 279 277 277 278 278 277 277 279 278 279 278 276 275 274 275 277 278 275 270 271 271 268 266 268 273 276 274 277 276 276 275 273 274 273 274 274 262 262 259 260 258 260 264 266 269 268 262 256 264 266 269 270 271 271 272 272 273 273 273 274 274 274 274 274
307 299 295 292 293 293 295 291 291 291 288 289 282 277 274 269 267 271 271 273 275 278 281 279 277 276 277 274 275 277 278 275 278 275 276 275 275 273 274 275 277 276 272 269 265 266 271 271 276 277 277 278 277 278 276 276 273 273 271 273 267 265 267 262 263 259 261 263 263 258 261 260 267 270 272 271 271 271 273 274 275 274 274 274 273 273 273 273
306 297 291 289 294 294 292 293 289 288 287 285 282 276 271 268 273 274 276 280 279 279 278 278 276 273 271 272 272 274 279 276 276 274 274 274 276 274 276 275 275 276 271 269 265 265 269 268 273 278 276 276 277 277 275 276 265 272 273 266 269 275 271 264 267 270 267 264 263 262 265 271 271 270 268 270 271 273 274 274 274 273 272 272 272 272 272 272
293 292 294 290 291 293 292 289 290 289 289 283 279 272 271 273 279 274 280 279 279 280 274 275 273 274 272 271 271 271 276 277 275 275 275 275 275 276 274 274 277 276 276 273 266 267 263 272 277 275 274 277 276 276 275 274 277 271 263 271 277 275 272 263 261 262 264 262 264 265 265 266 265 263 267 269 271 272 273 272 272 272 271 271 272 272 272 272
293 291 290 290 292 292 291 289 289 289 285 284 275 283 276 279 281 281 277 279 280 278 273 274 275 277 269 271 274 271 277 275 277 274 274 275 274 278 274 274 276 277 277 275 271 270 271 266 272 273 274 276 276 274 275 276 275 275 273 274 269 259 263 263 260 256 255 259 262 265 266 267 265 266 267 269 269 271 272 272 271 271 271 271 272 272 272 272
285 287 287 291 292 291 291 289 290 287 286 281 270 280 279 278 280 280 280 281 280 278 275 275 274 275 274 270 271 270 272 273 273 274 271 274 272 276 275 275 275 277 276 277 273 272 272 264 270 274 275 275 275 273 268 270 273 274 275 274 270 271 263 259 261 263 263 261 259 261 265 262 264 268 269 270 271 272 271 271 270 271 271 271 271 271 271 271
293 288 284 290 292 290 290 291 290 285 282 278 271 274 279 280 281 280 279 281 280 277 276 276 276 273 273 274 274 272 274 273 275 273 275 275 275 277 275 277 274 276 275 275 274 275 269 271 262 271 273 273 271 272 270 271 266 268 266 261 264 259 267 267 259 258 259 261 262 262 259 263 270 272 271 271 272 272 271 270 270 271 271 271 271 271 271 271
282 284 286 291 292 291 291 292 284 277 275 277 278 278 279 280 280 280 279 279 282 281 278 277 275 276 277 273 272 277 273 273 274 272 274 274 274 270 276 276 275 274 275 273 270 271 265 267 264 270 271 270 273 275 274 274 273 273 270 267 268 265 262 261 261 260 254 256 260 259 258 265 272 273 270 272 273 272 271 271 270 270 270 270 270 271 271 271
286 280 286 292 291 291 290 284 275 276 276 273 278 282 282 289 279 280 280 280 280 281 279 277 278 277 275 277 277 276 276 272 274 271 274 273 277 275 275 273 275 276 272 270 269 271 271 268 268 265 269 272 275 273 274 275 274 272 272 270 265 261 261 261 258 262 264 262 265 264 262 264 273 272 273 274 273 271 271 271 269 270 270 270 271 271 271 271
281 284 291 291 290 291 287 275 277 277 275 281 281 281 279 280 278 279 280 280 280 280 279 280 280 278 277 280 278 277 277 271 274 273 275 275 274 276 275 272 274 276 274 269 269 273 280 261 263 270 272 274 275 270 272 270 273 273 270 269 268 264 261 263 264 266 261 262 260 261 261 265 271 273 274 273 272 272 271 270 269 269 270 270 270 270 270 270
281 285 290 293 290 291 282 276 274 274 275 280 280 280 280 281 280 279 278 279 279 279 280 279 279 280 279 278 278 279 278 269 275 275 274 275 276 274 272 275 275 276 271 271 268 274 267 267 267 266 268 271 272 272 273 272 273 271 268 267 266 264 261 260 260 256 258 259 264 262 256 262 272 275 274 273 271 270 270 270 270 269 269 270 270 269 270 270
283 282 284 286 291 286 278 277 280 273 276 276 275 277 277 280 280 281 280 280 280 277 278 279 279 280 278 278 276 278 277 276 273 274 273 272 273 276 274 273 274 276 274 277 281 274 270 268 266 260 262 261 261 262 265 268 270 272 271 268 265 261 261 261 256 254 258 263 265 261 260 267 272 273 271 271 270 269 269 269 270 270 269 269 268 269 269 268
285 281 281 284 285 284 279 278 278 277 275 271 275 276 277 278 280 277 279 281 280 280 279 280 279 278 276 277 276 276 278 277 275 271 269 272 270 274 276 272 274 277 278 280 275 270 263 267 269 267 262 265 267 270 274 275 271 266 269 266 263 259 257 259 260 260 259 263 263 265 265 266 267 268 268 269 268 267 267 268 268 268 269 268 268 268 268 268
281 280 276 279 280 283 277 278 278 276 276 276 273 275 274 277 277 280 280 280 281 280 280 279 279 279 278 276 274 276 276 276 274 273 270 269 268 272 272 275 275 277 281 279 275 264 261 266 266 269 268 270 272 272 273 273 268 269 266 264 263 262 260 259 260 261 267 263 259 266 267 264 264 267 267 267 267 267 268 268 268 268 267 267 267 267 269 267
283 280 281 283 283 280 278 279 277 279 278 278 275 277 275 276 277 275 280 280 280 279 281 280 276 277 278 278 276 271 273 271 271 270 269 269 268 271 274 275 276 278 279 274 267 267 261 262 262 264 264 268 270 270 272 270 269 268 266 264 262 263 262 261 263 267 267 263 261 266 266 263 265 267 268 267 267 267 267 267 268 268 267 267 266 266 265 266
281 281 281 282 279 276 277 281 279 280 280 277 277 277 273 274 276 277 277 280 278 278 278 273 276 277 278 277 277 272 273 269 269 268 266 268 267 269 266 270 276 273 274 271 270 258 266 260 259 260 267 270 270 270 271 268 267 267 262 265 265 264 264 264 266 268 267 266 267 267 265 264 266 267 268 268 269 268 268 268 268 266 265 266 265 264 264 265
282 279 280 279 278 275 274 276 279 280 280 281 275 279 275 275 276 278 278 278 274 278 279 277 277 278 277 276 276 274 275 274 274 270 269 270 268 267 269 270 269 272 272 271 266 268 268 264 269 260 262 268 270 269 266 269 268 266 265 265 266 267 268 269 269 269 268 267 266 265 264 263 267 269 268 269 269 268 268 266 265 265 266 265 264 263 263 263
281 279 285 286 279 276 277 274 277 277 276 278 275 279 280 277 279 277 279 279 278 278 278 279 278 278 276 276 277 277 278 276 276 275 273 274 271 272 270 271 276 271 268 267 264 263 265 265 260 256 263 266 270 270 270 271 268 263 263 265 266 266 264 266 265 268 266 264 265 263 260 260 267 269 269 268 267 266 265 264 264 264 265 264 263 262 261 262
280 282 281 282 278 279 278 275 276 278 277 278 279 279 280 279 279 278 276 278 276 279 278 280 278 278 275 277 275 276 278 277 278 278 277 276 277 277 276 276 275 273 265 266 263 265 261 261 264 258 265 267 271 270 269 267 266 257 257 264 267 268 268 269 269 269 268 268 262 257 260 266 267 268 266 265 265 265 264 264 263 265 264 263 262 261 261 261
Wind_Speed
14 14 14 14 16 16 15 15 14 14 12 12 11 10 11 11 11 10 11 11 7 8 8 7 7 7 7 8 8 7 8 6 7 9 14 1 4 8 12 11 11 11 4 1 5 3 2 5 3 9 3 2 2 1 1 3 2 2 1 3 2 3 2 4 4 7 1 1 1 3 2 3 1 1 1 1 9 5 4 6 3 7 7 3 2 4 4 6
14 14 16 17 16 16 15 14 14 13 12 11 10 9 10 10 10 10 9 9 9 9 9 8 7 8 8 7 7 6 7 5 6 11 5 3 7 12 12 10 8 7 1 2 3 2 1 1 1 5 3 1 2 0 1 0 2 2 2 1 5 4 4 5 2 4 1 4 1 1 0 3 4 7 3 1 0 1 4 4 3 6 5 7 8 6 7 5
15 15 15 15 15 14 13 13 12 11 11 10 9 9 10 9 10 9 9 9 9 9 8 8 9 8 7 6 5 3 1 3 8 11 8 10 15 16 14 11 8 5 1 1 1 2 0 2 0 1 4 1 8 1 4 1 1 1 2 3 4 6 3 4 2 2 4 2 0 1 0 1 1 3 2 2 4 0 5 6 1 4 5 5 4 5 5 7
14 14 14 13 13 13 12 12 11 11 10 10 9 9 8 8 8 8 8 9 9 9 8 7 8 7 6 4 3 2 4 4 5 4 5 12 17 14 13 10 7 3 2 5 2 2 3 6 5 3 1 4 4 2 2 2 2 1 2 2 2 1 0 1 4 4 1 0 0 2 1 0 2 3 4 4 4 4 5 6 9 11 11 7 5 5 6 8
13 13 12 12 12 12 11 11 11 10 10 9 9 8 7 7 7 7 7 6 7 8 8 7 7 7 6 5 3 2 4 4 2 2 6 15 15 14 12 8 6 4 3 5 4 5 7 4 2 4 3 0 4 3 1 2 2 1 2 1 1 0 0 4 3 2 1 2 3 1 2 3 1 0 4 8 4 6 6 6 3 12 11 11 9 6 6 7
12 11 11 11 11 11 11 10 10 10 10 9 9 8 7 7 7 7 7 7 5 6 7 6 6 5 5 5 4 3 3 3 2 6 10 16 13 13 10 6 5 4 4 5 2 3 2 5 3 2 2 3 2 2 2 0 2 2 2 1 2 1 1 3 1 2 3 1 2 1 3 3 2 1 1 5 5 1 3 2 11 12 10 9 8 7 8 7
11 11 10 10 11 11 10 10 10 9 9 9 9 8 7 7 7 7 7 7 6 5 6 6 4 4 2 5 4 11 9 1 1 7 15 14 13 13 8 7 8 8 8 7 8 3 4 4 5 1 2 2 0 0 0 3 3 3 1 2 2 2 2 2 2 1 1 6 2 2 1 1 1 3 1 2 2 3 4 10 13 11 9 8 9 7 9 8
10 10 9 10 10 10 10 10 9 9 9 8 8 7 6 6 6 7 7 7 6 6 7 6 2 2 1 2 2 5 6 4 7 5 13 13 13 12 9 3 10 5 12 6 3 2 1 5 2 3 5 1 1 0 3 2 4 1 2 2 2 0 3 5 3 3 2 3 1 2 1 2 2 1 2 1 3 5 9 12 12 10 9 7 9 7 7 8
10 9 9 11 10 9 9 9 9 9 9 8 7 6 6 5 5 6 6 6 6 6 7 5 3 4 5 6 5 8 6 4 3 7 11 13 13 8 11 6 6 7 1 3 4 1 1 1 0 3 2 0 0 0 5 1 3 1 1 2 3 2 6 5 5 6 4 1 1 0 3 2 2 2 2 2 5 5 9 12 11 11 10 9 8 7 7 8
10 10 10 11 11 10 9 9 9 9 8 7 6 6 5 5 4 4 4 4 6 8 8 7 4 6 7 5 4 11 3 6 5 8 10 9 10 7 11 4 6 5 5 7 8 10 5 2 2 3 7 4 1 2 2 3 2 0 4 0 3 4 2 6 4 5 4 1 0 0 4 2 2 2 3 3 3 6 11 10 6 10 10 7 6 8 7 10
10 10 11 10 10 9 9 9 8 8 7 7 6 5 4 3 3 3 3 3 4 5 7 9 6 7 8 3 11 7 2 7 3 6 9 8 8 10 6 7 4 3 4 6 6 1 1 1 2 3 2 0 1 3 4 1 2 3 1 0 1 8 1 3 1 6 4 1 0 2 3 1 2 1 2 5 4 5 14 8 8 8 8 7 9 10 8 8
10 9 9 10 9 9 10 9 8 8 7 6 5 5 4 3 3 1 2 2 3 4 5 5 5 6 5 7 12 2 4 3 5 5 5 9 6 2 2 3 2 2 4 5 5 4 0 1 3 3 0 1 0 0 0 0 2 0 4 2 3 7 5 5 6 5 2 0 1 2 1 2 2 2 3 7 5 6 11 9 8 8 7 8 8 8 8 6
9 9 8 9 9 9 9 8 8 8 7 6 6 5 5 4 1 1 1 3 3 4 6 5 4 6 3 10 1 3 3 3 4 7 10 10 3 1 3 4 4 4 5 6 3 3 1 2 3 10 1 3 1 1 0 4 4 1 5 1 4 8 5 0 3 3 5 0 6 3 9 2 1 3 1 6 10 9 11 8 7 7 8 7 7 8 6 5
9 8 8 9 9 10 9 8 7 7 6 6 6 5 6 5 4 2 2 5 3 5 5 7 5 7 6 2 3 3 5 0 5 17 12 9 6 4 5 7 4 4 3 8 4 1 3 4 10 8 2 4 0 3 2 5 5 2 3 5 3 7 2 4 4 7 5 0 7 5 5 9 2 5 4 4 6 14 11 8 8 8 8 7 6 7 7 5
8 8 9 9 10 10 9 7 7 6 6 6 6 6 5 6 7 9 7 7 8 1 1 3 7 1 6 0 4 8 3 1 14 6 5 10 8 5 9 9 5 6 3 4 2 3 3 3 5 8 2 1 2 1 3 3 5 3 6 6 4 2 7 9 5 2 1 3 6 5 3 6 3 2 6 7 6 8 12 9 8 8 8 7 6 7 6 5
8 8 9 10 10 9 8 7 6 6 7 8 8 8 8 7 8 10 9 6 5 2 1 2 7 7 7 4 2 7 5 11 12 6 3 5 4 4 5 4 3 4 6 4 2 2 6 8 11 0 3 5 10 4 5 5 5 5 5 5 6 2 7 10 0 0 1 1 2 6 7 10 1 3 3 3 8 9 12 9 8 9 8 7 5 5 5 5
8 9 10 10 9 9 7 7 7 6 5 4 9 15 14 8 6 7 8 8 6 4 6 2 1 1 6 4 2 6 4 3 4 5 8 3 4 3 4 4 2 9 5 1 8 5 9 8 3 2 5 7 2 1 4 6 6 4 3 2 3 6 7 6 7 1 4 4 6 2 3 5 4 9 8 2 9 10 12 9 8 7 6 5 5 4 5 5
8 9 9 9 9 8 7 7 7 6 4 3 0 5 11 14 18 14 10 7 2 6 3 3 2 2 1 5 4 7 4 5 8 8 4 4 4 7 8 6 3 3 4 3 7 9 6 3 5 2 3 8 9 9 7 3 3 7 6 7 8 2 5 11 6 3 5 1 2 4 4 4 8 9 7 3 6 10 9 8 9 7 6 5 4 5 4 5
9 9 9 8 8 7 7 7 6 5 4 2 4 3 5 5 7 8 9 7 7 8 7 9 8 5 1 6 7 6 4 5 4 8 14 11 5 3 3 2 5 7 2 5 3 8 6 4 6 8 8 8 6 2 2 1 1 5 6 6 6 10 8 6 7 3 3 6 5 4 5 5 6 7 6 5 4 10 8 7 6 5 5 4 4 4 4 4
10 9 8 7 6 6 6 5 6 4 1 2 2 1 3 4 8 5 9 9 9 5 3 1 0 1 2 5 7 7 3 6 8 16 16 8 5 7 8 4 4 7 7 4 9 4 0 9 6 1 5 6 5 3 3 1 1 4 3 3 9 11 12 5 6 6 2 3 3 3 1 4 6 5 5 4 5 9 7 6 4 3 3 3 4 4 4 4
9 8 8 8 7 7 6 5 6 5 5 5 3 3 1 3 3 2 2 2 1 1 3 0 1 0 0 2 4 7 5 4 6 10 9 8 2 2 6 7 9 11 5 2 1 4 7 8 4 3 4 5 4 1 1 2 1 2 5 4 9 5 11 4 5 1 1 3 5 2 3 5 4 4 4 3 6 6 5 5 4 4 3 3 4 4 4 4
10 10 9 8 8 7 6 7 4 6 7 6 6 4 1 2 0 2 5 4 3 3 4 1 1 3 2 2 2 2 3 1 10 19 10 11 9 7 6 8 4 5 6 5 3 7 7 5 3 3 2 1 2 2 1 2 5 2 2 6 6 9 7 10 5 0 2 5 11 2 3 2 3 3 3 3 2 3 1 3 3 4 3 4 5 5 4 4
11 9 8 8 7 6 5 3 9 7 4 6 4 3 1 0 1 1 5 6 3 1 3 3 6 4 4 3 2 2 6 12 4 11 14 9 6 7 2 6 6 2 4 6 5 3 5 1 3 0 2 2 1 2 3 5 0 6 9 7 8 6 5 13 3 1 1 2 6 1 2 3 2 3 2 2 1 2 3 3 3 3 5 5 5 5 4 3
12 11 9 7 7 7 4 0 0 8 5 4 5 2 0 1 1 1 3 2 2 2 1 0 1 1 3 4 3 5 6 2 2 14 8 5 4 1 4 1 3 5 6 2 4 5 2 1 2 1 3 1 1 3 5 7 9 4 5 5 7 9 6 4 12 14 8 1 2 2 1 2 2 3 2 1 0 2 1 3 4 4 4 4 3 3 3 1
12 12 11 9 7 6 3 3 9 1 1 2 2 1 0 1 1 1 3 1 4 2 2 1 3 2 2 0 3 1 0 1 2 3 2 4 6 3 0 1 2 4 3 1 1 2 1 1 2 1 2 5 4 6 2 3 9 9 5 7 8 6 9 13 12 12 10 6 3 2 7 4 4 5 5 5 2 2 1 3 4 4 3 3 1 1 0 3
12 12 11 11 10 6 3 5 1 2 2 2 1 1 0 0 0 1 8 4 1 4 4 4 1 4 2 5 5 0 0 2 1 2 1 4 3 1 0 3 1 4 4 0 0 1 1 1 2 0 1 3 4 3 2 2 7 5 9 2 3 5 8 12 15 8 7 7 4 1 1 8 4 7 8 7 4 4 2 1 3 2 1 0 1 1 2 2
12 12 11 10 11 5 4 1 1 1 1 1 1 1 1 0 0 1 1 5 4 1 3 3 1 2 2 2 2 1 4 5 4 2 4 5 2 2 2 4 2 0 1 1 4 1 2 4 5 4 4 3 4 7 3 2 4 7 3 2 5 11 13 15 12 5 6 1 8 1 4 4 6 6 8 6 5 6 5 3 1 1 0 0 1 2 3 4
12 12 9 8 10 5 2 6 2 0 1 0 1 2 2 1 1 2 5 2 2 2 3 4 1 3 6 7 10 7 3 6 2 2 5 6 2 4 7 2 1 1 2 4 6 4 2 4 3 4 3 3 3 1 5 1 1 9 6 6 11 9 12 11 9 7 3 1 7 5 2 2 4 3 3 7 7 9 7 2 1 1 2 2 2 4 5 5
12 12 8 6 5 9 7 4 5 2 0 2 2 1 3 3 5 5 4 3 1 2 3 1 2 2 8 5 7 2 1 4 2 3 9 3 9 1 4 2 1 0 2 4 2 3 2 1 1 1 2 3 4 5 4 2 6 5 7 10 6 8 5 4 5 5 3 2 4 5 3 3 9 0 1 1 4 10 3 3 1 3 3 3 3 5 6 6
11 11 9 4 2 5 4 3 4 1 1 2 1 2 2 2 3 2 2 2 1 1 1 3 4 6 4 4 2 7 6 4 1 6 5 3 11 8 3 0 1 2 0 3 0 4 3 2 4 2 0 1 3 6 2 4 6 5 8 8 12 6 2 2 4 3 6 2 3 4 2 4 10 4 7 7 5 1 7 1 1 2 5 5 4 6 6 6
11 15 13 7 4 1 1 3 1 1 2 1 0 2 2 8 3 5 1 2 1 2 1 4 2 5 6 8 7 5 2 2 7 5 5 5 14 11 7 2 5 3 4 6 2 9 5 1 1 1 2 2 1 4 2 1 1 4 4 3 12 8 4 4 3 4 4 10 4 1 2 2 9 6 5 4 4 8 6 3 4 4 8 6 5 5 7 7
8 13 15 11 1 1 1 3 0 1 1 2 2 4 3 2 8 5 2 4 0 3 2 3 1 1 4 1 3 6 4 6 3 6 6 4 3 10 10 7 5 6 5 9 8 9 3 1 2 4 1 5 3 4 3 1 1 8 6 10 12 10 8 7 6 9 1 6 8 3 7 7 5 6 5 5 6 4 4 4 5 5 8 6 6 7 7 7
7 6 13 8 2 4 3 0 1 2 2 2 4 4 2 6 1 2 2 4 0 1 2 3 3 3 4 0 4 4 2 3 4 3 0 1 5 3 3 8 5 3 4 3 6 9 7 4 4 5 2 2 3 10 12 10 7 10 5 3 6 6 3 9 8 6 9 9 5 8 1 6 7 5 5 8 5 4 4 0 3 4 7 7 6 7 8 9
8 6 7 3 6 3 0 2 1 0 1 3 2 5 7 7 1 1 1 1 1 2 2 1 4 3 3 3 4 4 5 0 5 4 5 4 6 7 6 6 7 7 3 3 5 4 8 9 3 5 3 2 2 3 4 6 7 6 2 1 4 3 4 12 5 13 15 14 16 4 3 4 10 3 4 8 5 5 2 2 2 6 5 5 6 8 10 12
7 8 5 2 3 3 3 1 1 1 4 6 11 6 5 1 1 2 1 2 2 2 0 0 2 2 2 2 3 1 1 2 3 3 7 5 5 2 5 6 7 2 1 2 1 0 2 6 8 1 4 1 2 1 1 3 2 2 3 4 6 6 2 6 7 5 9 13 9 3 3 3 5 1 4 3 4 1 1 3 4 7 4 7 8 11 13 14
2 2 2 3 3 4 4 2 0 1 4 8 9 8 2 3 0 1 0 0 1 1 5 3 4 4 3 4 1 3 4 0 3 2 1 3 1 2 1 1 3 3 3 2 1 3 4 3 2 9 3 1 1 5 4 1 4 6 5 7 6 1 2 5 5 8 12 8 10 3 5 5 0 2 2 1 3 6 5 8 7 7 10 10 13 13 15 14
1 3 5 3 3 4 4 3 2 5 9 9 9 2 2 1 0 3 2 0 1 0 2 1 3 2 3 4 2 6 3 1 1 3 4 1 1 2 2 1 1 2 1 2 3 2 1 13 9 2 3 1 0 2 1 3 0 3 3 6 8 3 6 5 7 6 8 12 10 0 11 12 8 9 1 4 6 10 8 10 10 12 12 14 12 13 13 16
1 2 1 3 4 5 3 2 3 8 7 9 6 4 0 1 0 0 1 1 0 1 3 3 0 4 1 1 5 4 8 3 8 4 1 2 1 1 2 1 0 3 2 1 2 2 1 8 4 1 3 8 4 1 2 1 2 3 3 1 5 8 10 4 2 8 8 9 12 12 12 9 5 7 2 2 7 13 13 14 13 15 12 14 14 17 16 16
3 2 2 5 5 4 2 3 9 8 8 11 0 4 1 0 0 0 1 3 1 1 2 0 0 1 1 0 2 1 3 4 3 2 4 2 4 2 2 2 1 1 2 1 1 1 1 2 7 1 2 6 4 4 7 5 4 1 3 6 1 2 5 3 6 3 4 13 12 15 11 8 1 6 4 8 9 17 17 13 8 13 17 17 16 14 17 16
1 2 2 1 6 3 2 4 7 10 9 7 3 1 1 1 0 0 2 0 1 2 0 1 0 0 2 0 1 1 2 1 1 2 2 1 0 1 2 1 1 4 1 1 1 0 2 2 5 5 3 5 6 2 3 3 4 6 7 4 6 2 4 4 1 3 2 7 9 15 17 9 8 2 3 8 16 19 17 14 14 17 20 18 17 18 18 13
1 3 1 2 7 3 4 14 14 8 7 0 2 3 1 0 1 1 3 3 0 1 1 1 3 1 1 2 1 0 1 1 1 1 0 1 2 3 0 0 1 3 1 1 2 1 1 1 5 9 9 1 5 1 1 2 1 6 4 4 4 5 9 12 12 3 3 1 10 9 11 10 8 1 3 12 18 15 13 16 19 22 22 18 16 19 16 14
1 2 3 4 6 3 7 11 4 1 5 4 2 0 1 1 2 0 1 1 1 1 2 3 0 1 1 0 0 0 0 1 0 1 1 1 1 1 2 3 2 1 1 2 2 2 2 3 0 7 7 11 8 2 2 1 3 2 2 3 2 2 4 1 8 9 6 5 7 8 13 12 3 0 10 17 16 12 15 18 21 20 19 18 18 15 14 17
5 2 1 6 5 4 12 7 2 6 4 0 1 2 1 1 2 1 1 1 0 1 0 2 0 0 1 0 1 0 1 0 1 0 1 1 2 2 2 2 3 2 2 3 1 0 4 1 5 7 6 9 8 4 2 4 3 6 3 3 5 4 1 2 6 8 5 7 7 8 10 12 2 5 15 17 11 12 14 17 21 17 14 18 17 16 21 21
2 2 2 1 4 4 4 3 2 1 2 1 3 1 1 1 1 1 1 1 0 1 1 0 1 0 0 0 1 0 1 1 2 1 1 1 0 3 2 1 3 1 2 0 1 5 3 3 3 10 11 12 4 1 1 2 2 3 4 1 3 3 4 3 1 2 3 3 9 12 14 16 12 15 16 15 11 15 17 16 14 17 19 16 15 19 18 16
4 1 0 7 10 7 3 2 9 6 1 4 1 3 2 2 1 0 0 0 0 1 0 0 0 0 0 0 1 0 1 1 1 0 0 1 1 0 1 3 2 1 2 2 2 2 1 3 3 5 10 13 17 17 17 17 13 6 2 5 5 9 6 9 6 3 4 8 11 8 15 14 19 20 19 14 14 16 16 15 14 15 15 15 20 18 17 17
0 2 6 7 8 8 6 2 5 7 7 2 4 0 1 2 1 2 2 1 0 0 1 1 0 1 1 1 1 1 0 2 1 1 1 1 2 1 1 1 1 1 2 4 6 2 1 0 2 4 4 8 10 11 12 10 11 8 13 8 8 2 2 2 3 4 6 13 13 12 15 25 25 24 19 16 16 21 22 19 19 18 16 20 19 14 17 17
1 4 1 1 3 9 4 5 4 3 4 3 3 1 3 1 1 1 1 0 0 0 1 2 1 0 1 2 1 0 0 2 2 0 0 2 2 2 3 1 1 2 4 2 1 2 2 1 4 4 7 10 13 14 15 11 11 12 10 7 2 6 5 4 6 10 10 12 18 14 22 23 24 20 16 17 20 21 18 17 20 17 18 23 18 17 21 15
2 1 2 0 3 2 3 4 3 7 2 3 1 1 1 0 1 1 1 0 0 0 0 0 4 2 0 1 1 0 3 2 2 1 2 1 2 5 2 2 1 2 0 0 1 2 2 1 7 3 9 7 12 13 14 10 5 5 2 2 4 4 6 10 10 10 10 8 17 25 26 24 20 16 16 18 19 17 17 21 17 16 20 18 16 17 18 16
4 2 1 1 2 1 1 1 3 7 8 3 2 1 2 2 2 0 0 1 1 1 1 0 4 3 1 0 1 0 0 4 2 1 2 2 2 3 3 2 0 3 1 1 2 1 1 4 4 3 10 11 12 12 9 6 4 2 1 2 3 4 5 5 9 9 10 13 19 22 21 18 15 15 20 22 18 15 16 15 16 21 23 16 18 17 21 21
3 4 1 5 7 4 1 2 1 3 6 1 3 0 2 3 2 1 0 0 0 1 1 2 2 2 1 1 1 1 1 3 2 2 0 3 3 1 1 3 1 1 2 0 0 1 2 5 5 2 4 11 10 5 2 7 5 6 2 3 6 10 11 12 11 13 14 15 17 15 13 16 10 13 20 19 15 16 17 18 22 23 17 16 18 20 21 24
2 1 5 10 6 2 1 2 1 2 3 4 5 1 2 1 1 3 1 0 0 0 1 0 0 0 1 1 1 1 1 2 3 5 4 4 1 3 1 2 2 3 4 1 2 2 2 5 2 2 6 8 4 7 12 13 12 1 1 3 9 10 11 9 9 12 15 20 19 15 12 10 12 17 17 17 18 17 19 23 22 20 15 17 19 22 25 22
3 0 4 7 6 2 2 0 1 2 2 1 1 1 1 2 1 2 2 0 0 1 1 0 2 1 0 0 3 2 1 2 3 4 3 4 0 1 1 1 1 1 1 1 0 1 0 1 6 4 8 9 9 10 18 16 5 2 5 0 5 8 8 11 11 11 12 12 12 10 12 11 18 17 21 22 21 19 18 21 22 18 14 16 17 20 20 19
Wind_Direction
7 1 355 355 2 1 1 2 359 357 356 2 0 359 3 4 3 3 0 356 350 7 11 6 11 15 10 18 25 18 53 76 32 34 41 264 235 289 310 310 311 314 8 31 359 50 345 10 8 338 29 62 311 73 293 49 50 56 68 114 287 211 144 207 184 191 204 127 285 192 190 107 220 145 202 52 40 78 57 62 4 39 45 55 33 48 60 54
6 358 359 1 357 359 357 356 355 352 353 358 0 358 2 3 358 359 355 352 354 359 6 2 4 11 15 18 37 33 75 53 35 38 30 303 321 330 333 332 333 336 25 21 57 81 87 341 344 28 46 96 345 257 12 358 67 92 125 101 238 186 237 157 206 211 125 262 211 236 345 185 234 142 200 94 315 55 58 28 38 68 47 48 47 46 63 76
3 0 360 357 355 353 352 351 350 347 351 353 0 1 3 356 356 353 355 358 356 356 357 359 0 2 6 20 30 8 60 6 23 18 321 343 338 342 341 342 353 5 88 280 246 130 163 177 191 76 6 141 12 281 24 321 22 214 127 275 250 210 242 223 199 227 210 107 145 153 271 137 286 122 164 214 179 93 160 145 49 105 117 91 69 67 74 73
1 359 356 352 348 348 347 345 343 345 345 353 357 359 350 349 345 353 353 357 354 352 349 353 348 359 5 354 64 78 75 63 35 296 296 336 340 337 342 348 3 24 85 53 113 100 101 79 52 80 42 66 313 36 41 321 43 262 80 192 242 232 75 294 183 244 226 356 174 157 74 295 230 198 152 158 94 260 255 217 162 171 153 136 120 101 88 82
358 356 352 348 345 343 341 339 340 340 344 351 355 347 346 340 342 341 350 358 351 346 343 337 343 349 8 33 85 97 79 55 302 268 284 346 337 335 339 354 16 26 107 133 71 45 68 79 72 37 70 302 4 9 33 344 97 118 230 194 186 127 341 275 225 311 105 98 98 50 148 236 87 41 136 156 188 241 210 214 172 140 138 133 123 110 92 86
354 349 347 344 341 338 336 335 337 341 346 346 344 338 340 336 338 342 346 354 356 340 332 333 325 336 9 82 64 62 84 76 307 313 347 342 335 331 335 5 41 74 83 50 82 18 53 359 59 23 9 62 338 66 310 95 353 271 323 336 194 208 216 345 340 282 129 111 134 145 226 85 139 246 184 185 200 288 279 173 127 126 131 129 117 120 100 96
349 346 340 339 337 334 334 336 337 341 342 339 333 336 335 341 335 342 337 341 342 357 346 336 311 302 20 54 43 75 84 179 335 280 360 337 337 335 337 6 40 48 57 48 17 61 20 49 72 92 92 66 326 43 344 298 8 105 249 351 12 173 247 9 300 47 155 132 230 215 91 115 131 255 82 180 331 343 57 114 116 116 114 120 112 114 118 110
346 340 335 337 332 332 333 332 337 338 336 331 325 330 337 342 341 330 332 329 350 357 360 1 359 338 48 51 49 35 53 339 298 311 340 342 343 340 327 52 22 41 50 66 352 60 90 41 90 163 60 122 220 107 341 356 21 58 341 354 293 65 288 323 293 350 356 295 5 96 117 334 198 266 103 353 56 74 90 100 101 105 104 102 108 111 108 95
340 335 338 341 337 327 331 330 332 332 326 323 326 328 338 344 332 328 318 340 345 357 5 8 47 60 93 85 105 63 4 277 273 309 350 347 334 340 28 8 357 52 115 58 38 134 120 282 74 186 259 100 114 127 349 28 319 68 302 354 327 1 330 343 17 16 351 283 105 100 303 301 231 220 34 48 86 89 100 95 106 109 108 109 115 116 94 84
337 337 340 341 334 335 331 331 331 328 326 325 324 328 331 335 329 326 330 349 350 359 9 33 104 99 53 74 47 66 303 280 331 346 346 342 331 25 32 29 18 35 39 353 24 25 57 215 105 170 121 80 83 44 270 55 294 81 322 112 76 305 337 357 67 349 324 64 330 343 314 289 317 68 294 64 93 119 97 100 107 110 111 117 92 65 68 80
336 344 344 337 332 330 331 332 326 319 328 325 327 317 310 309 298 304 355 344 356 351 3 24 50 90 54 55 73 63 269 9 352 338 343 331 16 36 356 346 349 63 88 28 50 315 271 163 166 139 48 228 77 327 56 270 222 17 261 71 289 341 76 7 351 9 1 19 73 194 263 257 314 120 260 144 140 129 113 109 109 108 118 92 81 86 85 85
339 340 339 338 332 328 332 329 327 335 340 344 342 354 350 289 258 319 341 8 3 346 15 36 37 88 81 67 64 64 287 312 305 327 330 7 18 316 322 345 47 93 94 61 1 12 331 168 109 53 252 202 352 283 93 332 81 37 39 5 301 354 9 348 7 328 343 132 360 221 332 3 345 66 7 135 128 117 110 116 116 117 94 89 93 92 86 86
337 339 341 332 327 332 331 331 336 338 331 330 333 335 355 25 9 83 44 34 356 12 42 63 52 74 89 45 52 234 311 313 339 316 2 19 349 197 72 49 59 65 103 106 31 327 41 149 109 80 197 95 184 64 145 64 333 206 35 93 3 5 342 327 305 346 3 223 356 2 328 205 273 6 360 152 133 116 107 118 124 105 92 94 93 92 91 82
331 335 333 329 332 334 329 330 333 319 324 322 317 340 5 23 54 106 78 71 41 49 77 56 78 62 77 97 258 255 291 27 317 20 356 325 30 330 5 11 42 49 38 96 112 69 81 47 90 112 114 63 10 340 34 339 9 58 303 65 75 5 287 294 29 306 27 18 17 30 301 297 263 43 5 165 147 135 130 133 125 104 105 104 101 99 91 77
327 330 332 336 337 334 327 321 326 321 330 332 357 9 18 45 58 54 58 59 27 132 188 356 40 70 45 359 267 291 318 159 21 354 344 3 9 346 353 345 11 10 15 80 93 17 73 81 60 38 336 336 1 33 359 15 8 357 40 325 335 52 280 308 339 9 70 318 14 25 277 245 260 26 337 168 148 133 129 140 122 115 115 114 110 103 97 92
327 327 334 336 330 324 327 330 331 334 349 15 27 50 59 59 58 67 61 82 29 36 323 54 358 94 108 36 298 0 37 20 349 316 319 38 19 18 292 282 310 6 21 36 63 42 47 65 66 194 341 354 45 62 19 26 345 7 64 300 316 321 289 342 355 306 86 274 339 52 277 305 291 354 349 195 143 143 132 132 118 119 121 119 118 109 109 97
330 339 336 327 322 322 321 335 339 343 354 2 67 69 67 69 56 67 63 48 13 350 66 17 83 81 74 257 351 21 349 304 288 340 348 48 53 357 7 18 11 334 354 333 25 55 5 60 277 14 44 86 274 100 41 19 334 317 37 306 247 293 317 305 304 54 358 60 297 20 229 244 312 342 335 184 144 137 130 124 120 123 123 124 117 114 110 90
334 331 330 323 309 318 334 337 336 345 336 326 22 47 72 56 61 40 3 11 339 73 78 110 103 41 335 9 26 320 321 302 346 309 264 342 66 16 44 29 332 1 29 17 4 37 335 47 24 136 9 20 21 22 76 315 287 304 329 332 314 250 208 262 307 265 25 10 287 302 254 298 340 348 359 76 125 123 122 121 130 130 129 129 118 111 100 90
337 329 323 313 308 318 336 339 344 346 359 141 65 115 34 10 42 64 39 342 37 352 26 337 16 72 120 310 281 275 316 282 276 14 345 357 340 74 61 91 45 38 359 51 326 37 349 46 29 46 8 341 354 43 88 265 232 270 281 269 273 303 300 251 244 294 54 321 310 262 263 326 345 359 13 47 92 108 108 115 120 123 125 115 107 100 88 80
335 326 315 309 318 327 333 353 359 13 201 59 11 29 16 20 5 355 353 24 65 92 156 280 131 220 327 360 340 293 239 13 34 358 358 360 345 358 36 46 0 68 57 44 311 41 87 69 64 341 300 295 270 220 216 283 231 280 283 256 273 283 284 256 265 257 304 310 254 244 102 29 360 12 32 62 93 94 109 116 112 116 113 110 103 94 82 74
339 336 334 329 341 344 353 357 23 37 80 95 80 63 310 154 75 46 290 20 184 74 57 57 147 138 252 275 316 358 17 326 66 4 7 305 110 60 341 18 12 38 354 273 211 302 65 62 360 277 263 258 264 278 189 304 175 243 284 285 300 277 289 284 282 89 334 61 278 298 83 31 7 17 25 45 94 93 107 103 97 90 74 85 99 89 73 56
350 351 342 335 337 344 341 14 14 59 70 83 70 102 138 196 135 169 120 52 16 23 47 25 325 25 336 201 265 157 110 280 352 3 353 27 347 68 322 74 52 44 323 351 15 18 38 71 296 284 273 120 64 85 88 45 316 285 256 296 312 294 271 276 255 111 216 19 290 54 72 32 29 10 28 42 60 116 97 110 127 109 80 69 69 68 49 24
356 350 349 336 331 325 333 1 58 55 31 40 72 82 127 223 40 222 93 121 84 318 45 16 24 15 350 320 341 93 48 35 316 350 351 358 358 65 359 43 14 329 11 25 69 14 31 285 287 271 157 146 233 52 21 356 341 340 333 338 309 296 21 318 263 183 288 269 277 32 86 103 55 54 20 333 21 111 77 81 75 80 90 85 93 85 54 357
352 353 349 348 325 316 327 185 58 39 28 114 97 131 196 41 126 99 61 91 138 323 39 235 119 130 33 21 338 56 61 340 67 340 342 34 33 248 73 91 37 40 346 21 81 110 164 234 163 109 66 119 326 343 26 7 336 304 283 261 289 308 286 204 299 316 309 344 74 86 149 163 167 165 179 167 62 45 61 61 56 51 60 63 80 79 71 3
352 351 350 344 337 317 260 52 39 36 202 45 37 248 257 236 131 126 94 9 16 30 177 28 116 45 321 221 357 95 284 95 91 229 279 53 336 36 7 180 98 358 309 224 83 56 341 266 155 33 31 38 40 359 10 18 333 331 251 218 251 290 311 300 300 324 326 323 209 28 350 306 189 202 194 183 213 194 137 111 101 87 60 53 47 36 346 340
352 353 349 354 343 338 263 54 295 177 79 95 212 155 196 113 115 92 92 72 24 281 359 13 167 356 164 338 13 240 47 51 238 338 358 347 213 116 47 8 68 6 309 67 266 185 217 10 85 303 51 19 46 13 288 62 333 354 306 169 264 294 294 299 302 345 316 328 284 88 219 279 161 228 201 201 197 208 177 149 126 94 68 23 359 294 289 297
353 353 355 359 356 335 51 203 194 140 46 281 235 2 338 87 284 102 24 352 31 304 21 262 58 337 59 317 318 77 49 298 318 338 13 6 36 304 93 318 10 37 144 212 39 306 18 340 25 33 48 42 22 8 329 61 355 306 245 55 318 315 309 297 300 284 237 269 285 124 181 223 294 232 208 186 199 222 208 180 149 120 273 276 288 297 271 278
357 354 357 11 9 56 170 127 107 94 182 340 22 42 42 124 67 32 77 62 337 351 14 321 41 322 65 311 16 80 157 295 33 314 41 302 26 350 86 3 18 266 338 68 9 269 68 314 36 358 40 40 2 306 307 113 213 276 307 337 305 283 278 291 296 303 252 11 298 338 345 315 256 287 84 149 211 231 219 152 185 263 255 256 288 290 281 270
1 3 6 9 55 63 68 111 120 127 331 26 42 21 101 68 87 110 130 105 262 69 206 81 249 35 337 359 32 12 336 5 80 307 328 351 32 193 37 334 129 101 311 64 267 311 322 143 246 119 91 335 263 298 296 167 336 284 303 302 273 276 254 245 282 308 326 85 283 315 329 275 282 288 84 114 259 255 158 138 248 227 257 269 278 290 284 277
1 343 355 340 62 15 4 40 44 224 52 31 62 113 51 54 33 30 11 12 23 312 39 277 56 300 18 20 323 4 33 342 105 312 11 69 323 28 70 118 111 59 287 350 151 237 285 313 167 93 212 242 302 294 246 230 242 305 323 338 322 314 347 36 81 23 6 46 257 280 336 84 306 219 210 173 240 224 107 61 245 285 288 274 266 282 297 281
11 17 13 40 79 191 71 22 314 18 68 56 185 47 73 39 103 99 85 230 50 285 18 30 342 18 28 40 346 342 20 347 342 24 351 1 6 21 350 28 16 50 40 0 353 323 349 10 86 305 35 312 148 302 313 153 171 6 342 314 323 340 28 37 341 53 54 303 296 250 4 68 304 319 72 61 82 96 100 86 304 282 320 286 252 281 284 283
25 39 34 50 103 59 94 169 81 57 73 103 67 58 62 285 10 77 169 327 22 303 72 296 347 48 15 330 56 342 339 329 8 33 33 17 33 25 4 64 345 21 346 5 330 346 11 101 287 347 219 53 312 306 284 312 351 7 358 6 8 315 8 333 7 343 294 252 306 33 16 333 217 275 114 125 114 122 109 85 348 280 308 283 267 290 295 284
27 64 52 41 43 45 40 350 54 143 75 49 73 48 55 92 64 271 292 321 312 19 294 141 268 358 309 22 354 335 285 40 321 47 53 2 92 23 26 59 333 94 321 336 317 10 286 294 348 309 50 329 62 15 337 353 348 3 12 350 22 348 358 306 311 291 295 287 292 343 56 258 277 303 122 131 166 148 153 232 268 260 287 294 283 294 299 304
30 60 60 3 72 85 88 35 19 202 55 42 71 33 46 60 232 126 300 262 294 353 25 3 330 345 55 64 330 3 13 258 30 340 43 349 45 19 342 13 33 355 63 342 39 346 5 345 314 12 350 350 64 68 296 240 308 294 178 309 188 24 319 314 336 316 306 313 316 314 28 229 318 311 151 143 155 169 169 186 299 252 255 280 286 289 303 319
79 65 97 11 43 40 39 24 51 107 78 66 51 81 103 226 228 187 257 304 303 307 284 355 329 35 326 22 328 335 104 306 33 30 18 42 6 29 354 336 343 83 213 44 277 80 229 235 262 205 252 347 321 332 128 312 291 208 184 118 41 286 203 270 277 274 305 309 316 334 235 211 266 83 139 141 131 193 252 298 343 341 333 303 314 326 329 328
86 333 63 24 30 333 7 351 86 74 90 60 75 45 91 180 88 148 241 197 333 360 307 353 60 39 310 310 320 50 326 88 311 69 360 64 214 35 299 280 4 22 23 74 241 10 345 289 264 323 46 152 53 357 335 70 10 297 25 341 278 264 172 284 334 303 304 307 274 239 319 318 154 131 35 202 306 331 353 351 358 344 342 336 334 334 332 330
20 339 39 337 4 337 330 9 58 81 65 89 90 76 200 287 185 161 302 130 284 135 43 110 326 70 337 310 278 342 308 34 318 51 348 187 24 18 357 325 164 15 92 134 325 188 143 280 310 25 335 337 216 3 291 7 50 40 7 282 288 143 157 112 301 318 316 301 296 9 313 316 338 317 35 310 332 329 337 349 359 352 345 340 331 329 330 328
79 67 138 39 323 317 326 315 82 51 76 79 67 127 243 79 341 135 189 57 323 24 78 78 288 63 291 41 317 354 321 75 329 37 328 5 311 137 83 346 47 119 337 303 122 291 119 315 301 306 247 277 337 57 358 335 49 21 264 291 41 334 350 338 55 315 301 317 309 317 314 301 296 297 53 297 326 333 351 353 357 344 337 332 329 330 328 324
67 89 22 326 333 353 296 35 66 65 71 66 100 87 257 64 223 128 221 146 128 118 75 254 147 348 127 102 255 318 342 30 322 21 45 340 28 135 113 179 328 164 350 169 49 289 6 255 301 341 29 293 321 60 330 305 336 39 340 357 305 25 309 37 218 263 16 298 317 300 319 319 258 314 351 336 330 340 349 353 346 335 339 336 334 331 327 322
32 36 341 305 324 2 333 74 60 47 58 105 185 103 217 91 33 297 15 40 315 76 333 105 332 358 359 216 126 323 321 99 28 285 74 297 311 22 69 3 235 316 81 9 148 28 286 151 266 273 314 355 1 347 286 323 335 334 23 330 354 336 205 224 23 159 183 282 305 308 314 323 349 4 21 333 342 347 353 347 342 341 337 336 331 327 322 321
46 100 269 326 336 319 31 46 45 39 89 192 90 139 17 138 187 4 19 12 65 321 163 172 158 103 236 34 356 159 316 49 16 31 140 296 66 335 71 126 175 326 328 34 58 332 10 1 235 309 339 128 250 277 6 345 102 7 342 320 340 346 348 1 315 74 60 342 295 318 281 297 346 54 311 345 342 354 352 349 342 339 335 329 327 323 322 326
81 45 292 337 347 72 76 53 20 79 94 78 79 126 109 101 72 339 32 320 69 122 14 107 60 122 130 167 208 194 37 353 238 59 244 102 274 123 293 81 150 238 55 353 290 236 149 201 197 298 273 299 282 282 340 42 131 176 128 343 131 130 62 11 302 302 332 255 270 271 293 293 324 16 341 344 346 357 351 350 339 334 328 325 322 322 327 326
51 159 253 352 342 74 70 59 326 42 60 211 262 24 7 41 113 231 86 337 14 162 25 62 198 60 224 215 209 188 203 285 171 302 215 244 257 222 249 152 175 95 132 318 14 271 92 55 320 272 239 236 289 11 2 34 5 355 16 71 51 354 193 254 248 305 292 321 328 294 273 297 359 329 343 341 355 356 349 345 333 326 325 322 323 334 329 325
136 114 1 346 41 105 81 127 101 56 78 343 72 100 333 150 93 6 43 338 96 360 112 87 336 123 139 147 128 41 206 27 225 49 354 186 287 140 85 98 295 1 74 325 85 297 8 296 64 321 339 332 346 91 152 233 15 355 298 64 50 15 39 259 173 83 337 233 308 323 300 309 332 340 337 340 358 347 341 333 331 324 324 325 335 331 330 351
113 335 14 311 8 55 102 182 127 145 172 130 113 45 355 33 58 129 150 37 333 158 104 359 213 240 66 131 79 233 327 80 283 355 98 192 252 21 21 118 263 73 58 312 314 314 64 281 54 10 335 331 332 338 335 336 338 321 40 31 1 61 4 17 355 289 318 307 310 298 296 295 315 330 332 345 346 336 332 330 328 323 321 335 333 330 347 347
55 111 310 357 18 42 67 44 90 124 130 133 59 286 110 75 14 339 122 51 181 64 64 208 358 104 76 51 24 10 344 3 66 279 48 312 300 336 113 349 357 73 140 84 24 49 159 31 168 166 180 246 260 273 290 314 323 314 308 40 341 19 13 46 327 356 300 305 312 302 301 311 319 331 338 342 343 338 336 336 334 331 336 335 331 348 346 345
127 77 34 44 340 47 61 19 49 50 142 167 100 215 24 89 249 343 195 54 326 154 30 56 322 59 336 57 320 326 290 313 1 102 319 225 260 253 289 225 32 86 163 90 55 84 69 320 258 210 226 239 260 281 290 309 296 293 315 321 1 357 336 15 3 315 305 317 303 317 320 319 319 327 336 338 340 337 332 334 331 335 340 331 342 346 342 349
72 229 109 191 123 151 60 8 71 88 41 73 122 67 146 80 31 120 351 78 210 316 157 306 46 46 203 141 121 23 324 350 3 291 341 201 329 333 43 27 42 303 335 352 34 109 131 196 267 97 253 241 270 273 281 289 264 263 317 13 350 292 339 349 326 306 326 319 299 314 322 319 319 332 334 335 338 331 332 328 330 330 327 332 346 345 348 357
109 130 134 325 91 310 119 154 90 103 74 83 122 103 115 110 113 202 170 313 32 351 62 84 330 346 328 279 106 84 340 34 318 224 153 310 7 339 1 354 140 11 85 49 20 163 96 245 245 193 291 294 290 281 281 274 272 337 319 304 276 342 289 267 268 281 296 291 302 312 313 310 328 329 334 331 332 331 327 324 328 334 331 348 340 350 349 340
198 130 105 16 84 104 6 45 78 66 66 5 94 315 141 165 141 241 333 119 55 313 353 85 286 342 3 122 114 96 227 189 213 283 232 116 318 126 240 193 268 344 30 134 99 297 82 285 24 356 322 297 282 270 290 295 306 341 6 310 337 344 348 337 317 306 303 307 307 306 321 320 319 332 325 322 328 329 328 337 335 329 337 347 352 351 344 335
143 125 152 126 69 331 25 23 57 95 83 347 76 217 94 209 156 168 107 307 150 166 4 322 165 115 58 92 101 238 215 199 208 218 190 161 263 228 122 289 124 315 355 7 30 318 52 278 68 73 341 294 313 330 325 322 330 18 218 12 356 341 341 329 326 329 330 317 325 335 329 309 323 334 321 322 331 338 339 335 332 330 345 352 356 343 339 336
79 23 76 104 88 318 77 8 13 56 38 235 134 201 143 212 183 133 76 181 81 336 157 187 211 110 344 33 261 239 241 191 210 227 203 215 16 253 242 215 153 217 271 101 246 7 132 3 336 340 340 298 312 356 323 315 279 49 349 240 327 334 308 301 302 322 317 329 337 333 313 329 330 331 328 327 333 337 340 336 326 333 359 3 349 340 336 337